Regional Weather Roundup
Issued by NWS Little Rock, AR

Home | Current Version | Previous Version | Text Only | Print | Product List | Glossary On
Versions: 1 2 3 4 5 6 7 8 9 10 11 12 13 14 15 16 17 18 19 20 21 22 23 24 25 26 27 28 29 30 31 32 33 34 35 36 37 38 39 40 41 42 43 44 45 46 47 48 49 50
000
ASUS44 KLZK 212005
RWRLZK

WEATHER ROUNDUP FOR ARKANSAS
NATIONAL WEATHER SERVICE LITTLE ROCK AR
200 PM CST THU NOV 21 2019

NOTE: "FAIR" INDICATES FEW OR NO CLOUDS BELOW 12,000 FEET WITH NO
SIGNIFICANT WEATHER AND/OR OBSTRUCTIONS TO VISIBILITY.

ARZ001-003-010-029-212100-
NORTHWEST ARKANSAS

CITY           SKY/WX    TMP DP  RH WIND       PRES   REMARKS
FAYETTEVILLE   CLOUDY    63  61  93 S3        29.94F
FORT SMITH     CLOUDY    64  62  93 NE9       29.92F
HARRISON       CLOUDY    63  57  81 S8        29.95F
BENTONVILLE    LGT RAIN  55  54  96 N6        29.98R FOG
ROGERS         LGT RAIN  55  54  96 N7        29.97R FOG
SILOAM SPGS    LGT RAIN  53  52  96 NW10      29.97S FOG
HIGHFILL       CLOUDY    54  53  97 N8        29.96S FOG
SPRINGDALE     LGT RAIN  61  61 100 NW10      29.96S FOG
$$

ARZ004-005-016-212100-
NORTH CENTRAL ARKANSAS

CITY           SKY/WX    TMP DP  RH WIND       PRES   REMARKS
BATESVILLE     CLOUDY    58  56  93 S8        30.00F
FLIPPIN        PTSUNNY   66  58  75 SW8       29.94F
MTN HOME       CLOUDY    64  58  80 S8        29.94F
$$

ARZ040-041-212100-
WEST CENTRAL ARKANSAS

CITY           SKY/WX    TMP DP  RH WIND       PRES   REMARKS
MENA           CLOUDY    63  61  94 CALM      29.98S
MOUNT IDA      CLOUDY    60  57  89 VRB3      29.97F FOG
$$

ARZ009-017-025-026-028-212100-
NORTHEAST ARKANSAS

CITY           SKY/WX    TMP DP  RH WIND       PRES   REMARKS
JONESBORO      LGT RAIN  57  55  93 S9        30.02F FOG
NEWPORT        CLOUDY    57  56  96 S14       30.02F
WALNUT RIDGE   CLOUDY    57  56  96 S17       29.99F
BLYTHEVILLE    CLOUDY    56  54  93 S13       30.04S
$$

ARZ022-023-033-042-044-212100-
CENTRAL ARKANSAS

CITY           SKY/WX    TMP DP  RH WIND       PRES   REMARKS
LITTLE ROCK    CLOUDY    60  57  89 S9        30.02F
N LITTLE ROCK    N/A     58  56  93 S6        30.03F
BENTON         CLOUDY    59  57  94 S6        30.01F FOG
JACKSONVILLE   CLOUDY    60  59  97 S5        30.01F
CONWAY         CLOUDY    61  57  88 S10       30.00F
SEARCY         CLOUDY    59  59 100 MISG      30.03F
HOT SPRINGS    CLOUDY    58  55  90 SE6       30.01F FOG
RUSSELLVILLE   CLOUDY    62  56  80 SE6       29.97F
CLINTON        CLOUDY    59  57  94 S6        30.00S
$$

ARZ036-212100-
EAST ARKANSAS

CITY           SKY/WX    TMP DP  RH WIND       PRES   REMARKS
WEST MEMPHIS   LGT RAIN  55  54  96 S13       30.05F FOG
$$

ARZ050-053-066-070-073-212100-
SOUTHWEST ARKANSAS

CITY           SKY/WX    TMP DP  RH WIND       PRES   REMARKS
ARKADELPHIA    LGT RAIN  59  59 100 CALM      30.02F FOG
CAMDEN         CLOUDY    61  55  82 SE7G14    30.01S
TEXARKANA      CLOUDY    62  60  93 CALM      29.97F
EL DORADO      CLOUDY    62  61  96 E6        30.01F
DE QUEEN       CLOUDY    60  57  89 E6        29.96F FOG
$$

ARZ056-057-069-212100-
SOUTHEAST ARKANSAS

CITY           SKY/WX    TMP DP  RH WIND       PRES   REMARKS
PINE BLUFF     CLOUDY    61  59  93 S8        30.03F
STUTTGART      CLOUDY    58  57  97 S10       30.03F
MONTICELLO     CLOUDY    59  57  93 SE8       30.03F

$$





USA.gov is the U.S. government's official web portal to all federal, state and local government web resources and services.